"Period start","avg(HW err(1)/warn(2) (#))","avg(Visibility (m))","avg(Weather code (#))","avg(Precip intensity (mm/h))","min(HW err(1)/warn(2) (#))","max(HW err(1)/warn(2) (#))","std(HW err(1)/warn(2) (#))","med(HW err(1)/warn(2) (#))","min(Visibility (m))","max(Visibility (m))","std(Visibility (m))","med(Visibility (m))","min(Weather code (#))","max(Weather code (#))","std(Weather code (#))","med(Weather code (#))","min(Precip intensity (mm/h))","max(Precip intensity (mm/h))","std(Precip intensity (mm/h))","med(Precip intensity (mm/h))"
2014-11-15 00:00:00,2,4306,77,0.15,2,2,0,2,3697,5542,487,4124,77,77,0,77,0.10,0.20,0.04,0.15
2014-11-15 00:10:00,2,4125,77,0.32,2,2,0,2,3856,4576,220,4102,77,77,0,77,0.20,0.45,0.09,0.33
2014-11-15 00:20:00,2,5279,75,0.28,2,2,0,2,4361,6084,540,5258,71,77,3,77,0.15,0.40,0.07,0.30
2014-11-15 00:30:00,2,8180,73,0.10,2,2,0,2,6814,8923,682,8308,71,77,3,71,0.05,0.25,0.06,0.08
2014-11-15 00:40:00,2,9664,77,0.07,2,2,0,2,8446,11104,731,9716,77,78,0,77,0.05,0.10,0.02,0.05
2014-11-15 00:50:00,2,11274,78,0.02,2,2,0,2,8939,14321,1573,11036,78,78,0,78,0.00,0.05,0.02,0.00
2014-11-15 01:00:00,2,12600,77,0.02,2,2,0,2,11235,13972,841,12604,77,78,0,77,0.00,0.05,0.02,0.00
2014-11-15 01:10:00,2,12509,77,0.03,2,2,0,2,11521,13650,619,12309,77,77,0,77,0.00,0.05,0.03,0.03
2014-11-15 01:20:00,2,11184,77,0.02,2,2,0,2,10012,12525,841,11126,77,77,0,77,0.00,0.05,0.02,0.00
2014-11-15 01:30:00,2,9370,77,0.02,2,2,0,2,7450,12474,1716,8663,77,78,0,77,0.00,0.05,0.02,0.00
2014-11-15 01:40:00,2,6539,77,0.05,2,2,0,2,6002,7342,429,6446,77,77,0,77,0.00,0.10,0.02,0.05
2014-11-15 01:50:00,2,5774,77,0.07,2,2,0,2,5053,6675,426,5818,77,77,0,77,0.05,0.10,0.02,0.05
2014-11-15 02:00:00,2,6774,77,0.06,2,2,0,2,5534,7958,802,6909,77,77,0,77,0.05,0.10,0.02,0.05
2014-11-15 02:10:00,2,5660,77,0.12,2,2,0,2,4087,6780,888,6071,77,77,0,77,0.05,0.20,0.05,0.15
2014-11-15 02:20:00,2,4220,77,0.15,2,2,0,2,3467,5219,547,4207,77,77,0,77,0.05,0.25,0.06,0.15
2014-11-15 02:30:00,2,5091,73,0.19,2,2,0,2,4059,7135,1001,4718,71,77,3,71,0.05,0.35,0.11,0.17
2014-11-15 02:40:00,2,5727,73,0.28,2,2,0,2,4605,7191,817,5719,71,77,3,71,0.05,0.85,0.22,0.28
2014-11-15 02:50:00,2,7340,71,0.11,2,2,0,2,5766,8095,646,7498,71,71,0,71,0.00,0.30,0.08,0.10
2014-11-15 03:00:00,2,6848,73,0.21,2,2,0,2,5156,8304,981,7003,71,77,3,71,0.05,0.40,0.13,0.25
2014-11-15 03:10:00,2,7314,74,0.11,2,2,0,2,5618,8968,1194,7757,71,77,3,74,0.05,0.30,0.08,0.08
2014-11-15 03:20:00,2,7187,77,0.12,2,2,0,2,4937,8962,1368,7070,77,77,0,77,0.05,0.20,0.05,0.12
2014-11-15 03:30:00,2,9768,77,0.04,2,2,0,2,8310,11201,974,9568,77,77,0,77,0.00,0.10,0.04,0.05
2014-11-15 03:40:00,2,12381,77,0.03,2,2,0,2,10665,14378,1055,12222,77,77,0,77,0.00,0.05,0.02,0.05
2014-11-15 03:50:00,2,14085,75,0.07,2,2,0,2,10573,19080,2995,13022,71,77,3,77,0.00,0.20,0.06,0.05
2014-11-15 04:00:00,2,4888,74,0.27,2,2,0,2,3026,8792,1816,4058,71,77,3,74,0.05,0.60,0.18,0.25
2014-11-15 04:10:00,2,2836,71,0.80,2,2,0,2,2642,3035,136,2808,71,71,0,71,0.50,1.25,0.28,0.65
2014-11-15 04:20:00,2,2537,71,0.48,2,2,0,2,2251,3050,225,2450,71,71,0,71,0.20,0.90,0.21,0.42
2014-11-15 04:30:00,2,2000,71,0.33,2,2,0,2,1363,2279,281,2092,71,71,0,71,0.20,0.50,0.08,0.33
2014-11-15 04:40:00,2,2578,71,0.34,2,2,0,2,2235,2886,172,2592,71,71,0,71,0.20,0.50,0.09,0.30
2014-11-15 04:50:00,2,2379,71,0.59,2,2,0,2,2048,2855,223,2343,71,71,0,71,0.35,1.05,0.20,0.55
2014-11-15 05:00:00,2,2248,71,0.58,2,2,0,2,2064,2495,116,2237,71,71,0,71,0.35,0.90,0.15,0.60
2014-11-15 05:10:00,2,1956,74,0.51,2,2,0,2,1887,2174,80,1922,71,77,3,71,0.35,0.70,0.10,0.55
2014-11-15 05:20:00,2,2580,71,0.24,2,2,0,2,1954,3142,378,2610,71,71,0,71,0.10,0.55,0.15,0.17
2014-11-15 05:30:00,2,1857,71,0.52,2,2,0,2,1526,2379,242,1810,71,71,0,71,0.20,0.75,0.16,0.53
2014-11-15 05:40:00,2,1488,71,0.89,2,2,0,2,1165,2082,230,1458,71,71,0,71,0.50,1.55,0.30,0.75
2014-11-15 05:50:00,2,1960,71,1.74,2,2,0,2,1614,2355,223,1993,71,71,0,71,0.70,4.80,1.11,1.38
2014-11-15 06:00:00,2,1747,71,2.29,2,2,0,2,1644,1808,48,1764,71,71,0,71,1.55,2.90,0.46,2.35
2014-11-15 06:10:00,2,1490,71,1.47,2,2,0,2,1257,1760,161,1446,71,71,0,71,0.80,2.35,0.43,1.40
2014-11-15 06:20:00,2,1341,71,1.06,2,2,0,2,1048,1939,379,1116,71,71,0,71,0.75,1.65,0.24,1.02
2014-11-15 06:30:00,2,1286,65,1.44,2,2,0,2,887,1665,266,1249,41,71,12,71,0.80,2.35,0.44,1.45
2014-11-15 06:40:00,2,2811,59,1.02,2,2,0,2,1557,3988,851,3126,41,71,15,71,0.50,2.00,0.39,0.97
2014-11-15 06:50:00,2,3598,59,0.65,2,2,0,2,3067,4067,333,3610,41,77,18,59,0.30,1.05,0.26,0.65
2014-11-15 07:00:00,2,3815,65,0.56,2,2,0,2,3247,4672,452,3744,41,71,12,71,0.30,1.10,0.22,0.53
2014-11-15 07:10:00,2,2589,66,0.78,2,2,0,2,2090,3407,402,2540,41,77,16,77,0.40,1.45,0.30,0.80
2014-11-15 07:20:00,2,3002,65,0.39,2,2,0,2,2380,3878,542,2830,41,71,12,71,0.20,0.65,0.14,0.33
2014-11-15 07:30:00,2,4142,74,0.21,2,2,0,2,2992,5674,869,4174,71,77,3,74,0.15,0.35,0.06,0.20
2014-11-15 07:40:00,2,7812,73,0.13,2,2,0,2,5734,11186,1655,8102,71,77,3,71,0.05,0.30,0.09,0.10
2014-11-15 07:50:00,2,11396,77,0.02,2,2,0,2,9496,13302,1051,11342,77,77,0,77,0.00,0.05,0.02,0.00
2014-11-15 08:00:00,2,10513,77,0.01,2,2,0,2,9120,12649,951,10678,77,77,0,77,0.00,0.05,0.02,0.00
2014-11-15 08:10:00,2,11884,77,0.01,2,2,0,2,9229,16486,2056,11116,77,77,0,77,0.00,0.05,0.02,0.00
2014-11-15 08:20:00,2,18539,62,0.00,2,2,0,2,11274,27831,5262,19038,0,77,31,77,0.00,0.00,0.00,0.00
2014-11-15 08:30:00,2,23894,0,0.00,2,2,0,2,13272,32442,6859,23528,0,0,0,0,0.00,0.00,0.00,0.00
2014-11-15 08:40:00,2,13035,0,0.00,2,2,0,2,9884,18013,2178,12985,0,0,0,0,0.00,0.00,0.00,0.00
2014-11-15 08:50:00,2,17705,0,0.00,2,2,0,2,8379,25963,4932,16981,0,0,0,0,0.00,0.00,0.00,0.00
2014-11-15 09:00:00,2,21317,0,0.00,2,2,0,2,7624,31023,6451,22012,0,0,0,0,0.00,0.00,0.00,0.00
2014-11-15 09:10:00,2,24974,0,0.00,2,2,0,2,13088,39875,7625,24302,0,0,0,0,0.00,0.00,0.00,0.00
2014-11-15 09:20:00,2,41193,0,0.00,2,2,0,2,24215,50000,9312,44345,0,0,0,0,0.00,0.00,0.00,0.00
2014-11-15 09:30:00,2,25303,0,0.00,2,2,0,2,14681,35550,7239,25742,0,0,0,0,0.00,0.00,0.00,0.00
2014-11-15 09:40:00,2,42051,0,0.00,2,2,0,2,31363,50000,5240,43006,0,0,0,0,0.00,0.00,0.00,0.00
2014-11-15 09:50:00,2,26013,0,0.00,2,2,0,2,11536,41026,9188,27029,0,0,0,0,0.00,0.00,0.00,0.00
2014-11-15 10:00:00,2,9903,0,0.00,2,2,0,2,6650,12842,2007,9416,0,0,0,0,0.00,0.00,0.00,0.00
2014-11-15 10:10:00,2,25729,0,0.00,2,2,0,2,16089,37727,6415,26594,0,0,0,0,0.00,0.00,0.00,0.00
2014-11-15 10:20:00,2,40133,0,0.00,2,2,0,2,33587,46758,4574,40069,0,0,0,0,0.00,0.00,0.00,0.00
2014-11-15 10:30:00,2,28362,0,0.00,2,2,0,2,15621,46179,10569,25043,0,0,0,0,0.00,0.00,0.00,0.00
2014-11-15 10:40:00,2,43889,0,0.00,2,2,0,2,38388,49611,3584,43700,0,0,0,0,0.00,0.00,0.00,0.00
2014-11-15 10:50:00,2,38252,0,0.00,2,2,0,2,31807,44876,4437,38843,0,0,0,0,0.00,0.00,0.00,0.00
2014-11-15 11:00:00,2,46450,0,0.00,2,2,0,2,41520,49121,2212,46712,0,0,0,0,0.00,0.00,0.00,0.00
2014-11-15 11:10:00,2,49054,0,0.00,2,2,0,2,43994,50000,1788,49958,0,0,0,0,0.00,0.00,0.00,0.00
2014-11-15 11:20:00,2,46476,0,0.00,2,2,0,2,37625,50000,3900,47734,0,0,0,0,0.00,0.00,0.00,0.00
2014-11-15 11:30:00,2,48323,0,0.00,2,2,0,2,43501,50000,2387,49734,0,0,0,0,0.00,0.00,0.00,0.00
2014-11-15 11:40:00,2,49123,0,0.00,2,2,0,2,45592,50000,1525,50000,0,0,0,0,0.00,0.00,0.00,0.00
2014-11-15 11:50:00,2,48733,0,0.00,2,2,0,2,46118,50000,1429,49380,0,0,0,0,0.00,0.00,0.00,0.00
2014-11-15 12:00:00,2,48445,0,0.00,2,2,0,2,43479,50000,2271,50000,0,0,0,0,0.00,0.00,0.00,0.00
2014-11-15 12:10:00,2,11502,2,0.00,2,2,0,2,4818,45890,11690,7514,0,10,4,0,0.00,0.00,0.00,0.00
2014-11-15 12:20:00,2,16226,3,0.00,2,2,0,2,11535,22578,3452,15391,0,10,5,0,0.00,0.00,0.00,0.00
2014-11-15 12:30:00,2,27813,0,0.00,2,2,0,2,16801,40954,7861,31284,0,0,0,0,0.00,0.00,0.00,0.00
2014-11-15 12:40:00,2,44207,0,0.00,2,2,0,2,27633,50000,7423,47562,0,0,0,0,0.00,0.00,0.00,0.00
2014-11-15 12:50:00,2,44280,0,0.00,2,2,0,2,38464,50000,3966,43907,0,0,0,0,0.00,0.00,0.00,0.00
2014-11-15 13:00:00,2,13102,0,0.00,2,2,0,2,5274,31429,8811,9822,0,0,0,0,0.00,0.00,0.00,0.00
2014-11-15 13:10:00,2,13115,5,0.00,2,2,0,2,8126,22212,4392,11702,0,10,5,5,0.00,0.00,0.00,0.00
2014-11-15 13:20:00,2,21827,0,0.00,2,2,0,2,15732,24915,3309,23372,0,0,0,0,0.00,0.00,0.00,0.00
2014-11-15 13:30:00,2,18635,0,0.00,2,2,0,2,13744,24452,3471,18744,0,0,0,0,0.00,0.00,0.00,0.00
2014-11-15 13:40:00,2,15489,0,0.00,2,2,0,2,10174,20040,3405,16532,0,0,0,0,0.00,0.00,0.00,0.00
2014-11-15 13:50:00,2,6867,5,0.00,2,2,0,2,5355,9217,1132,6627,0,10,5,5,0.00,0.00,0.00,0.00
2014-11-15 14:00:00,2,5367,10,0.00,2,2,0,2,3856,6180,689,5659,10,10,0,10,0.00,0.00,0.00,0.00
2014-11-15 14:10:00,2,3332,10,0.00,2,2,0,2,3149,3733,168,3256,10,10,0,10,0.00,0.00,0.00,0.00
2014-11-15 14:20:00,2,3007,10,0.00,2,2,0,2,2704,3427,220,2997,10,10,0,10,0.00,0.00,0.00,0.00
2014-11-15 14:30:00,2,2982,10,0.00,2,2,0,2,2388,3431,360,3117,10,10,0,10,0.00,0.00,0.00,0.00
2014-11-15 14:40:00,2,2585,10,0.00,2,2,0,2,2438,2768,93,2592,10,10,0,10,0.00,0.00,0.00,0.00
2014-11-15 14:50:00,2,2516,10,0.00,2,2,0,2,2312,2890,172,2524,10,10,0,10,0.00,0.00,0.00,0.00
2014-11-15 15:00:00,2,3287,10,0.00,2,2,0,2,2967,3716,260,3255,10,10,0,10,0.00,0.00,0.00,0.00
2014-11-15 15:10:00,2,2947,10,0.00,2,2,0,2,2425,3810,356,2856,10,10,0,10,0.00,0.00,0.00,0.00
2014-11-15 15:20:00,2,4198,10,0.00,2,2,0,2,3334,5686,650,4048,10,10,0,10,0.00,0.00,0.00,0.00
2014-11-15 15:30:00,2,1906,22,0.01,2,2,0,2,617,4587,1044,1594,10,71,24,10,0.00,0.05,0.02,0.00
2014-11-15 15:40:00,2,1410,77,0.07,2,2,0,2,1049,1749,255,1408,71,78,2,77,0.00,0.60,0.18,0.00
2014-11-15 15:50:00,1,866,78,0.03,1,2,0,1,0,1731,866,866,78,78,0,78,0.00,0.05,0.03,0.03
2014-11-15 16:00:00,1,,,,1,1,0,1,,,,,,,,,,,,
2014-11-15 16:10:00,1,,,,1,1,0,1,,,,,,,,,,,,
2014-11-15 16:20:00,1,,,,1,1,0,1,,,,,,,,,,,,
2014-11-15 16:30:00,1,,,,1,1,0,1,,,,,,,,,,,,
2014-11-15 16:40:00,1,,,,1,1,0,1,,,,,,,,,,,,
2014-11-15 16:50:00,1,,,,1,1,0,1,,,,,,,,,,,,
2014-11-15 17:00:00,1,,,,1,1,0,1,,,,,,,,,,,,
2014-11-15 17:10:00,1,,,,1,1,0,1,,,,,,,,,,,,
2014-11-15 17:20:00,1,,,,1,1,0,1,,,,,,,,,,,,
2014-11-15 17:30:00,1,,,,1,1,0,1,,,,,,,,,,,,
2014-11-15 17:40:00,1,,,,1,1,0,1,,,,,,,,,,,,
2014-11-15 17:50:00,1,,,,1,1,0,1,,,,,,,,,,,,
2014-11-15 18:00:00,1,,,,1,1,0,1,,,,,,,,,,,,
2014-11-15 18:10:00,1,,,,1,1,0,1,,,,,,,,,,,,
2014-11-15 18:20:00,1,,,,1,1,0,1,,,,,,,,,,,,
2014-11-15 18:30:00,1,,,,1,1,0,1,,,,,,,,,,,,
2014-11-15 18:40:00,1,,,,1,1,0,1,,,,,,,,,,,,
2014-11-15 18:50:00,1,,,,1,1,0,1,,,,,,,,,,,,
2014-11-15 19:00:00,1,,,,1,1,0,1,,,,,,,,,,,,
2014-11-15 19:10:00,1,,,,1,1,0,1,,,,,,,,,,,,
2014-11-15 19:20:00,1,,,,1,1,0,1,,,,,,,,,,,,
2014-11-15 19:30:00,1,,,,1,1,0,1,,,,,,,,,,,,
2014-11-15 19:40:00,1,,,,1,1,0,1,,,,,,,,,,,,
2014-11-15 19:50:00,1,,,,1,1,0,1,,,,,,,,,,,,
2014-11-15 20:00:00,1,,,,1,1,0,1,,,,,,,,,,,,
2014-11-15 20:10:00,1,,,,1,1,0,1,,,,,,,,,,,,
2014-11-15 20:20:00,1,,,,1,1,0,1,,,,,,,,,,,,
2014-11-15 20:30:00,1,,,,1,1,0,1,,,,,,,,,,,,
2014-11-15 20:40:00,1,,,,1,1,0,1,,,,,,,,,,,,
2014-11-15 20:50:00,1,,,,1,1,0,1,,,,,,,,,,,,
2014-11-15 21:00:00,1,,,,1,1,0,1,,,,,,,,,,,,
2014-11-15 21:10:00,1,,,,1,1,0,1,,,,,,,,,,,,
2014-11-15 21:20:00,1,,,,1,1,0,1,,,,,,,,,,,,
2014-11-15 21:30:00,1,,,,1,1,0,1,,,,,,,,,,,,
2014-11-15 21:40:00,1,,,,1,1,0,1,,,,,,,,,,,,
2014-11-15 21:50:00,1,,,,1,1,0,1,,,,,,,,,,,,
2014-11-15 22:00:00,1,,,,1,1,0,1,,,,,,,,,,,,
2014-11-15 22:10:00,1,,,,1,1,0,1,,,,,,,,,,,,
2014-11-15 22:20:00,1,,,,1,1,0,1,,,,,,,,,,,,
2014-11-15 22:30:00,1,,,,1,1,0,1,,,,,,,,,,,,
2014-11-15 22:40:00,1,,,,1,1,0,1,,,,,,,,,,,,
2014-11-15 22:50:00,1,,,,1,1,0,1,,,,,,,,,,,,
2014-11-15 23:00:00,1,,,,1,1,0,1,,,,,,,,,,,,
2014-11-15 23:10:00,1,,,,1,1,0,1,,,,,,,,,,,,
2014-11-15 23:20:00,1,,,,1,1,0,1,,,,,,,,,,,,
2014-11-15 23:30:00,1,,,,1,1,0,1,,,,,,,,,,,,
2014-11-15 23:40:00,1,,,,1,1,0,1,,,,,,,,,,,,
2014-11-15 23:50:00,1,,,,1,1,0,1,,,,,,,,,,,,
